DECAYED

STARLINK-31998, 60033 (Decayed)

Orbit data source: Space-Track

STARLINK-31998, 60033 was a payload satellite owned by SpaceX/Seattle (US) in LEO that was launched on Sat, 08 Jun 2024 UTC via an FALCON 9 launch vehicle from the Air Force Eastern Test Range (AFETR). Payload-class satellites include a variety of spacecraft equipped with specific instruments for various scientific and technological missions. These include communications satellites like Starlink; space stations such as the ISS; scientific satellites like the Hubble; Earth observation satellites from companies like Planet Labs, Umbra, and HawkEye 360; GPS; miniature CubeSats for education and research; and military/defense satellites.

Not visible in the next 10 days
Identifier
60033, 2024-111T
Orbit
Decayed
Country
Flag of USUS
Related business
Manufacturer
SpaceX/Seattle
Mission
Decayed Commercial Communications
Bus & Motor
STARLINK V2M, Unknown motor
Mass
730 kg wet, ~700 kg dry
Launch date (UTC)
2024-06-08 (2 years ago)
Launch vehicle
FALCON 9
Launch site
Air Force Eastern Test Range (AFETR)
Object type
Payload
Rocket body
Debris
Shape & HBR
Box + 2 Pan, 17.7 m
Radar Cross Section
33.884 m², Large (>1 m²)

Expand to show TLE details & history
Last TLE update: 11 months ago

TLE from 11 months ago
0 STARLINK-31998
1 60033U 24111T   25198.62805679  .04746942  10271+0  50133-2 0  9999
2 60033  53.1559  62.8743 0006313 251.0282 155.7128 16.17068239 63297
Epoch: 2025-07-17T15:04Z
TLE epoch observation values (Epoch: 2025-07-17T15:04:24.106Z)
Latitude
35.7881°
Longitude
-66.43143°
Altitude
234.049 km
Speed
7.769 km/s
True Right ascension
06h 21m 26s
True Declination
35° 36' 44"
Sunlit
Object was in daylight at epoch
Visualization orbit readout
Latitude
Unknown
Longitude
Unknown
Altitude
Unknown
Speed
Unknown
Apparent Right ascension
Unknown
Apparent Declination
Unknown
Sunlit
N/A
Visualization observer readout
Local Sidereal Time
23:07:39
Azimuth
Unknown
Elevation
Unknown
Doppler factor
Unknown
Orbital elements
Apogee altitude
231.961 km
Perigee altitude
223.62 km
Semi-major axis
6,605.927 km
Eccentricity
0.00063
Inclination
53.1559°
RAAN
62.8743°
Arg. of periapsis
251.0282°
True anomaly
155.74253°
Mean anomaly
155.7128°
Eccentric anomaly
155.72767°
Mean motion
4.04243 °/min
Orbital period
89.06 mins
BSTAR
0.0050133
Loading maneuver chart data...
Computing Atmospheric mass density...
Loading historical data...
Loading historical data...
Loading historical data...
Loading historical data...
Loading historical data...
Loading historical data...
Loading historical data...

Documentation

Showing up to 5 results
|